JTM125 ZJSY-VMMC

Flight info

Callsign JTM125
Flight time 1h 5m
Altitude 31100
Route PORAP W222 SAMAS G221 BIGRO
Aircraft B738/M-SDE2FGHIRWY/L

Departure

Time 2026-04-22 15:17
Airport Sanya Phoenix International Airport (ZJSY)

Arrival

Time 2026-04-22 16:22
Airport Macau International Airport (VMMC)
Time Latitude Longitude Altitude Speed Heading
2026-04-22 15:04 18.30632 109.41055 103 ft 0 kts 82°
2026-04-22 15:10 18.30632 109.41091 104 ft 13 kts 107°
2026-04-22 15:10 18.30485 109.41137 99 ft 31 kts 194°
2026-04-22 15:11 18.30452 109.41064 96 ft 0 kts 256°
2026-04-22 15:11 18.30447 109.41036 95 ft 5 kts 258°
2026-04-22 15:11 18.30438 109.40992 94 ft 7 kts 258°
2026-04-22 15:11 18.30426 109.40931 93 ft 9 kts 258°
2026-04-22 15:12 18.30411 109.40854 91 ft 11 kts 258°
2026-04-22 15:12 18.30404 109.40761 89 ft 13 kts 269°
2026-04-22 15:12 18.30399 109.40655 87 ft 15 kts 259°
2026-04-22 15:12 18.30377 109.40537 83 ft 17 kts 261°
2026-04-22 15:13 18.30364 109.40404 80 ft 19 kts 262°
2026-04-22 15:13 18.30342 109.40258 78 ft 20 kts 261°
2026-04-22 15:13 18.30321 109.40108 76 ft 21 kts 261°
2026-04-22 15:13 18.30298 109.39946 74 ft 22 kts 262°
2026-04-22 15:14 18.30277 109.39782 74 ft 22 kts 262°
2026-04-22 15:14 18.30209 109.39643 72 ft 21 kts 201°
2026-04-22 15:14 18.30179 109.39637 72 ft 0 kts 183°
2026-04-22 15:15 18.30170 109.39637 71 ft 5 kts 179°
2026-04-22 15:15 18.30105 109.39656 70 ft 14 kts 127°
2026-04-22 15:16 18.30103 109.39732 70 ft 0 kts 82°
2026-04-22 15:16 18.30111 109.39806 70 ft 38 kts 83°
2026-04-22 15:16 18.30174 109.40320 75 ft 102 kts 82°
2026-04-22 15:16 18.30300 109.41258 101 ft 152 kts 83°
2026-04-22 15:17 18.30477 109.42390 534 ft 158 kts 82°
2026-04-22 15:17 18.30645 109.43556 1023 ft 168 kts 87°
2026-04-22 15:17 18.30791 109.44765 1698 ft 165 kts 88°
2026-04-22 15:17 18.30932 109.45932 2300 ft 165 kts 88°
2026-04-22 15:18 18.31093 109.47151 2745 ft 177 kts 86°
2026-04-22 15:18 18.31287 109.48506 3173 ft 190 kts 84°
2026-04-22 15:18 18.31789 109.49824 3575 ft 210 kts 51°
2026-04-22 15:18 18.33024 109.50782 3977 ft 227 kts 29°
2026-04-22 15:19 18.34459 109.51590 4398 ft 241 kts 30°
2026-04-22 15:19 18.35954 109.52515 4755 ft 259 kts 32°
2026-04-22 15:19 18.37497 109.53548 5641 ft 265 kts 32°
2026-04-22 15:19 18.39022 109.54591 6618 ft 267 kts 32°
2026-04-22 15:20 18.40076 109.55311 7249 ft 269 kts 32°
2026-04-22 15:20 18.42174 109.56738 8420 ft 274 kts 31°
2026-04-22 15:20 18.43761 109.57816 9324 ft 277 kts 31°
2026-04-22 15:20 18.45398 109.58927 10206 ft 280 kts 31°
2026-04-22 15:21 18.47036 109.60039 11083 ft 283 kts 31°
2026-04-22 15:21 18.48691 109.61149 11911 ft 287 kts 29°
2026-04-22 15:21 18.50448 109.62139 12734 ft 291 kts 24°
2026-04-22 15:21 18.52294 109.63035 13596 ft 294 kts 22°
2026-04-22 15:22 18.54181 109.63905 14439 ft 297 kts 22°
2026-04-22 15:22 18.56105 109.64795 15024 ft 311 kts 22°
2026-04-22 15:22 18.58115 109.65738 15571 ft 324 kts 23°
2026-04-22 15:22 18.60140 109.66702 15766 ft 309 kts 23°
2026-04-22 15:23 18.62094 109.67641 15750 ft 313 kts 23°
2026-04-22 15:23 18.64139 109.68621 16063 ft 334 kts 23°
2026-04-22 15:23 18.66309 109.69660 16529 ft 349 kts 23°
2026-04-22 15:23 18.68570 109.70743 16976 ft 364 kts 23°
2026-04-22 15:24 18.70940 109.71877 17378 ft 379 kts 23°
2026-04-22 15:24 18.73386 109.73049 17753 ft 394 kts 23°
2026-04-22 15:24 18.75903 109.74256 18092 ft 408 kts 23°
2026-04-22 15:24 18.78554 109.75526 18493 ft 420 kts 23°
2026-04-22 15:25 18.81246 109.76818 19073 ft 426 kts 23°
2026-04-22 15:25 18.83943 109.78113 19673 ft 431 kts 23°
2026-04-22 15:25 18.86673 109.79423 20285 ft 435 kts 23°
2026-04-22 15:25 18.89451 109.80757 20901 ft 438 kts 23°
2026-04-22 15:26 18.92232 109.82093 21481 ft 443 kts 23°
2026-04-22 15:26 18.95059 109.83451 22075 ft 446 kts 23°
2026-04-22 15:26 18.97881 109.84808 22664 ft 449 kts 23°
2026-04-22 15:26 19.00739 109.86184 23225 ft 453 kts 23°
2026-04-22 15:27 19.03606 109.87563 23801 ft 456 kts 23°
2026-04-22 15:27 19.06534 109.88974 24356 ft 460 kts 23°
2026-04-22 15:27 19.09458 109.90382 24877 ft 464 kts 23°
2026-04-22 15:27 19.12398 109.91798 25401 ft 468 kts 23°
2026-04-22 15:28 19.15387 109.93240 26078 ft 468 kts 23°
2026-04-22 15:28 19.18317 109.94655 26851 ft 466 kts 23°
2026-04-22 15:28 19.21263 109.96078 27544 ft 465 kts 23°
2026-04-22 15:28 19.24218 109.97504 28241 ft 464 kts 23°
2026-04-22 15:29 19.27144 109.98908 28961 ft 462 kts 22°
2026-04-22 15:29 19.30080 110.00287 29726 ft 459 kts 21°
2026-04-22 15:29 19.32973 110.01630 30462 ft 457 kts 21°
2026-04-22 15:30 19.37849 110.03933 30950 ft 462 kts 22°
2026-04-22 15:30 19.44614 110.07192 30942 ft 453 kts 22°
2026-04-22 15:31 19.50352 110.09970 30932 ft 456 kts 22°
2026-04-22 15:31 19.53290 110.11391 30932 ft 467 kts 22°
2026-04-22 15:31 19.56265 110.12828 30933 ft 477 kts 22°
2026-04-22 15:32 19.62355 110.15773 30928 ft 480 kts 22°
2026-04-22 15:32 19.68453 110.18730 30926 ft 480 kts 22°
2026-04-22 15:33 19.74536 110.21681 30921 ft 480 kts 21°
2026-04-22 15:33 19.80606 110.24626 30921 ft 480 kts 21°
2026-04-22 15:34 19.86696 110.27583 30919 ft 480 kts 21°
2026-04-22 15:34 19.92765 110.30531 30919 ft 480 kts 21°
2026-04-22 15:35 19.97847 110.33001 30920 ft 480 kts 21°
2026-04-22 15:35 20.04933 110.36442 30918 ft 480 kts 21°
2026-04-22 15:36 20.11133 110.38954 30912 ft 476 kts 14°
2026-04-22 15:36 20.17541 110.40816 30914 ft 475 kts 11°
2026-04-22 15:37 20.23990 110.42480 30910 ft 476 kts 10°
2026-04-22 15:37 20.30403 110.44128 30913 ft 475 kts 10°
2026-04-22 15:38 20.36828 110.45815 30912 ft 475 kts 10°
2026-04-22 15:38 20.46160 110.49449 30911 ft 485 kts 30°
2026-04-22 15:39 20.48817 110.51725 30910 ft 491 kts 41°
2026-04-22 15:39 20.51072 110.54471 30909 ft 495 kts 50°
2026-04-22 15:39 20.54572 110.60796 30909 ft 500 kts 63°
2026-04-22 15:40 20.57117 110.67758 30906 ft 503 kts 69°
2026-04-22 15:40 20.59355 110.74828 30906 ft 503 kts 69°
2026-04-22 15:41 20.61566 110.81856 30910 ft 503 kts 69°
2026-04-22 15:41 20.63850 110.88931 30903 ft 503 kts 68°
2026-04-22 15:42 20.65783 110.94789 30897 ft 503 kts 68°
2026-04-22 15:42 20.68520 111.02932 30902 ft 502 kts 68°
2026-04-22 15:43 20.70902 111.09969 30902 ft 505 kts 68°
2026-04-22 15:43 20.73277 111.16996 30911 ft 503 kts 68°
2026-04-22 15:44 20.75644 111.24017 30911 ft 504 kts 68°
2026-04-22 15:44 20.78011 111.31057 30915 ft 503 kts 68°
2026-04-22 15:45 20.80358 111.38051 30912 ft 503 kts 68°
2026-04-22 15:45 20.82688 111.45113 30911 ft 505 kts 70°
2026-04-22 15:46 20.83741 111.52511 30919 ft 510 kts 91°
2026-04-22 15:46 20.82872 111.60008 30919 ft 511 kts 99°
2026-04-22 15:47 20.81535 111.67464 30921 ft 511 kts 101°
2026-04-22 15:47 20.80121 111.74896 30934 ft 511 kts 101°
2026-04-22 15:48 20.78731 111.82352 30937 ft 511 kts 100°
2026-04-22 15:48 20.77384 111.89786 30943 ft 511 kts 100°
2026-04-22 15:49 20.76535 111.97276 30936 ft 510 kts 88°
2026-04-22 15:49 20.76931 112.01022 30942 ft 507 kts 76°
2026-04-22 15:49 20.77837 112.04627 30945 ft 505 kts 70°
2026-04-22 15:50 20.80128 112.11726 30941 ft 504 kts 67°
2026-04-22 15:50 20.82581 112.18683 30942 ft 503 kts 66°
2026-04-22 15:51 20.85029 112.25676 30944 ft 503 kts 67°
2026-04-22 15:51 20.87424 112.32694 30944 ft 504 kts 67°
2026-04-22 15:52 20.89777 112.39709 30942 ft 503 kts 68°
2026-04-22 15:52 20.91723 112.45561 30945 ft 503 kts 68°
2026-04-22 15:53 20.94455 112.53801 30943 ft 505 kts 68°
2026-04-22 15:53 20.96796 112.60880 30953 ft 503 kts 68°
2026-04-22 15:54 20.99127 112.67932 30955 ft 505 kts 68°
2026-04-22 15:54 21.01450 112.74970 30955 ft 504 kts 68°
2026-04-22 15:55 21.03789 112.82068 30960 ft 505 kts 68°
2026-04-22 15:55 21.06106 112.89110 30960 ft 504 kts 68°
2026-04-22 15:56 21.08423 112.96160 30962 ft 503 kts 68°
2026-04-22 15:56 21.10749 113.03248 30907 ft 500 kts 68°
2026-04-22 15:57 21.11875 113.06691 30758 ft 487 kts 68°
2026-04-22 15:57 21.12972 113.10051 30396 ft 477 kts 68°
2026-04-22 15:57 21.14069 113.13413 29761 ft 475 kts 68°
2026-04-22 15:57 21.15153 113.16729 29101 ft 472 kts 68°
2026-04-22 15:58 21.16226 113.20013 28509 ft 469 kts 68°
2026-04-22 15:58 21.17296 113.23288 27944 ft 465 kts 68°
2026-04-22 15:58 21.18352 113.26522 27470 ft 459 kts 68°
2026-04-22 15:58 21.19412 113.29771 26867 ft 456 kts 68°
2026-04-22 15:59 21.20447 113.32948 26335 ft 452 kts 68°
2026-04-22 15:59 21.21473 113.36096 25776 ft 448 kts 68°
2026-04-22 15:59 21.22491 113.39223 25291 ft 442 kts 68°
2026-04-22 15:59 21.23502 113.42331 24709 ft 440 kts 68°
2026-04-22 16:00 21.24159 113.44353 24364 ft 437 kts 69°
2026-04-22 16:00 21.25476 113.48409 23676 ft 431 kts 69°
2026-04-22 16:00 21.26457 113.51432 23147 ft 427 kts 69°
2026-04-22 16:00 21.27469 113.54404 22639 ft 422 kts 66°
2026-04-22 16:01 21.28702 113.57206 22074 ft 417 kts 57°
2026-04-22 16:01 21.30334 113.59734 21514 ft 411 kts 47°
2026-04-22 16:01 21.32345 113.61887 21008 ft 402 kts 36°
2026-04-22 16:01 21.34624 113.63575 20433 ft 396 kts 26°
2026-04-22 16:02 21.37072 113.64871 19909 ft 390 kts 20°
2026-04-22 16:02 21.39578 113.65987 19343 ft 387 kts 19°
2026-04-22 16:02 21.42049 113.67010 18790 ft 383 kts 16°
2026-04-22 16:02 21.44614 113.67710 18195 ft 377 kts
2026-04-22 16:03 21.47201 113.67837 17659 ft 369 kts 355°
2026-04-22 16:03 21.49770 113.67668 17118 ft 365 kts 352°
2026-04-22 16:03 21.52286 113.67420 16562 ft 363 kts 351°
2026-04-22 16:03 21.54802 113.67141 16019 ft 360 kts 351°
2026-04-22 16:04 21.57288 113.66860 15467 ft 358 kts 351°
2026-04-22 16:04 21.59758 113.66588 14953 ft 354 kts 351°
2026-04-22 16:04 21.62210 113.66326 14428 ft 351 kts 351°
2026-04-22 16:04 21.64606 113.66076 13887 ft 348 kts 351°
2026-04-22 16:05 21.66214 113.65910 13533 ft 346 kts 351°
2026-04-22 16:05 21.69412 113.65581 12786 ft 343 kts 351°
2026-04-22 16:05 21.71779 113.65338 12241 ft 341 kts 351°
2026-04-22 16:05 21.74123 113.65096 11675 ft 339 kts 352°
2026-04-22 16:06 21.76490 113.64853 11131 ft 337 kts 352°
2026-04-22 16:06 21.78789 113.64616 10856 ft 331 kts 352°
2026-04-22 16:06 21.81105 113.64377 10848 ft 335 kts 352°
2026-04-22 16:06 21.83442 113.64135 10843 ft 336 kts 351°
2026-04-22 16:07 21.85765 113.63895 10841 ft 335 kts 352°
2026-04-22 16:07 21.88076 113.63657 10848 ft 336 kts 352°
2026-04-22 16:07 21.90402 113.63419 10829 ft 329 kts 352°
2026-04-22 16:07 21.92656 113.63191 10694 ft 314 kts 351°
2026-04-22 16:08 21.94792 113.62973 10564 ft 300 kts 352°
2026-04-22 16:08 21.96829 113.62764 10415 ft 289 kts 351°
2026-04-22 16:08 21.98806 113.62559 10094 ft 285 kts 351°
2026-04-22 16:08 22.00787 113.62316 9689 ft 283 kts 347°
2026-04-22 16:09 22.02653 113.61706 9279 ft 277 kts 328°
2026-04-22 16:09 22.04202 113.60535 9007 ft 269 kts 317°
2026-04-22 16:09 22.05640 113.59254 8973 ft 269 kts 319°
2026-04-22 16:09 22.07141 113.58051 8731 ft 266 kts 322°
2026-04-22 16:10 22.08673 113.56918 8307 ft 268 kts 323°
2026-04-22 16:10 22.10228 113.55796 7931 ft 268 kts 323°
2026-04-22 16:10 22.11254 113.55056 7696 ft 267 kts 323°
2026-04-22 16:10 22.13274 113.53546 7212 ft 265 kts 321°
2026-04-22 16:11 22.14769 113.52391 6938 ft 261 kts 321°
2026-04-22 16:11 22.16240 113.51249 6900 ft 260 kts 321°
2026-04-22 16:11 22.17728 113.50097 6871 ft 261 kts 321°
2026-04-22 16:11 22.19175 113.48984 6788 ft 249 kts 321°
2026-04-22 16:12 22.20612 113.47979 6701 ft 240 kts 329°
2026-04-22 16:12 22.22182 113.47495 6592 ft 237 kts 356°
2026-04-22 16:12 22.23783 113.47838 6515 ft 233 kts 20°
2026-04-22 16:12 22.25190 113.48684 6410 ft 227 kts 29°
2026-04-22 16:13 22.26494 113.49577 6275 ft 220 kts 29°
2026-04-22 16:13 22.27772 113.50447 5914 ft 215 kts 29°
2026-04-22 16:13 22.29055 113.51309 5346 ft 218 kts 29°
2026-04-22 16:13 22.30337 113.52171 4810 ft 220 kts 29°
2026-04-22 16:14 22.31634 113.53046 4304 ft 218 kts 30°
2026-04-22 16:14 22.32913 113.53912 3876 ft 214 kts 30°
2026-04-22 16:14 22.34143 113.54745 3779 ft 207 kts 30°
2026-04-22 16:14 22.35370 113.55620 3794 ft 216 kts 36°
2026-04-22 16:15 22.36323 113.56861 3795 ft 218 kts 69°
2026-04-22 16:15 22.36528 113.58490 3800 ft 218 kts 94°
2026-04-22 16:15 22.36330 113.60055 3701 ft 203 kts 111°
2026-04-22 16:15 22.35662 113.61342 3349 ft 193 kts 136°
2026-04-22 16:16 22.34627 113.62189 2956 ft 186 kts 161°
2026-04-22 16:16 22.33443 113.62570 2783 ft 169 kts 170°
2026-04-22 16:16 22.32357 113.62881 2701 ft 154 kts 168°
2026-04-22 16:16 22.31319 113.63207 2674 ft 155 kts 168°
2026-04-22 16:17 22.30282 113.63533 2498 ft 153 kts 168°
2026-04-22 16:17 22.29294 113.63846 2332 ft 139 kts 168°
2026-04-22 16:17 22.28382 113.64075 2167 ft 133 kts 178°
2026-04-22 16:17 22.27478 113.64030 1982 ft 127 kts 193°
2026-04-22 16:18 22.26622 113.63770 1811 ft 127 kts 203°
2026-04-22 16:18 22.25863 113.63341 1769 ft 121 kts 216°
2026-04-22 16:18 22.25211 113.62740 1786 ft 126 kts 226°
2026-04-22 16:18 22.24662 113.61995 1775 ft 128 kts 232°
2026-04-22 16:19 22.24135 113.61227 1776 ft 126 kts 231°
2026-04-22 16:19 22.23602 113.60477 1769 ft 124 kts 231°
2026-04-22 16:19 22.23053 113.59734 1604 ft 127 kts 229°
2026-04-22 16:19 22.22486 113.59016 1462 ft 126 kts 227°
2026-04-22 16:20 22.21905 113.58295 1283 ft 128 kts 228°
2026-04-22 16:20 22.21313 113.57576 1108 ft 127 kts 217°
2026-04-22 16:20 22.20456 113.57366 938 ft 124 kts 177°
2026-04-22 16:20 22.19605 113.57539 732 ft 132 kts 170°
2026-04-22 16:21 22.18708 113.57782 613 ft 127 kts 165°
2026-04-22 16:21 22.17888 113.58099 460 ft 127 kts 164°
2026-04-22 16:21 22.17044 113.58403 282 ft 125 kts 165°
2026-04-22 16:21 22.16200 113.58686 80 ft 127 kts 163°
2026-04-22 16:22 22.14891 113.59153 12 ft 41 kts 152°
2026-04-22 16:22 22.14813 113.59189 12 ft 0 kts 161°